STARLINK-1830, 46727

Orbit data source: Space-Track

STARLINK-1830, 46727 is a payload satellite owned by SpaceX/Seattle (US) in LEO that was launched on Sun, 18 Oct 2020 UTC via an FALCON 9 launch vehicle from the Air Force Eastern Test Range (AFETR). Payload-class satellites include a variety of spacecraft equipped with specific instruments for various scientific and technological missions. These include communications satellites like Starlink; space stations such as the ISS; scientific satellites like the Hubble; Earth observation satellites from companies like Planet Labs, Umbra, and HawkEye 360; GPS; miniature CubeSats for education and research; and military/defense satellites.

Loading next visibility...
Identifier
46727, 2020-073BK
Orbit
LEO
Country
Flag of USUS
Related business
Manufacturer
SpaceX/Seattle
Mission
Partially operational Commercial Communications
Bus & Motor
STARLINK, Unknown motor
Mass
260 kg wet, ~248 kg dry
Launch date (UTC)
2020-10-18 (5 years ago)
Launch vehicle
FALCON 9
Launch site
Air Force Eastern Test Range (AFETR)
Object type
Payload
Rocket body
Debris
Shape & HBR
Box + 1 Pan, 10.1 m
Radar Cross Section
13.562 m², Large (>1 m²)

Expand to show TLE details & history
Last TLE update: 6 hours ago

TLE from 6 hours ago
0 STARLINK-1830
1 46727U 20073BK  26034.33336806  .00190014  00000-0  35391-2 0  9993
2 46727  53.0487 348.5923 0006107  45.4216 227.3915 15.47652233  5894
Epoch: 2026-02-03T08:00Z
TLE epoch observation values (Epoch: 2026-02-03T08:00:03.000Z)
Latitude
-53.11393°
Longitude
9.6409°
Altitude
444.857 km
Speed
7.643 km/s
True Right ascension
17h 32m 40s
True Declination
-52° 56' 28"
Sunlit
Object was in daylight at epoch
Visualization orbit readout
Latitude
Unknown
Longitude
Unknown
Altitude
Unknown
Speed
Unknown
Apparent Right ascension
Unknown
Apparent Declination
Unknown
Sunlit
N/A
Visualization observer readout
Local Sidereal Time
16:00:27
Azimuth
Unknown
Elevation
Unknown
Doppler factor
Unknown
Orbital elements
Apogee altitude
428.027 km
Perigee altitude
419.719 km
Semi-major axis
6,802.01 km
Eccentricity
0.00061
Inclination
53.0487°
RAAN
348.5923°
Arg. of periapsis
45.4216°
True anomaly
227.34002°
Mean anomaly
227.3915°
Eccentric anomaly
227.36576°
Mean motion
3.8689 °/min
Orbital period
93.05 mins
BSTAR
0.0035391
Loading maneuver chart data...
Computing Atmospheric mass density...
Loading historical data...
Loading historical data...
Loading historical data...
Loading historical data...
Loading historical data...
Loading historical data...
Loading historical data...

Documentation

Showing up to 5 results
|